Tacoma, WA
on Tuesday, January 8, 2013

Tuesday
Previous Day Next Day
Daily Summary
 ActualAverage (KSEA)Record (KSEA)
Temperature
Mean Temperature °F 42°F  
Max Temperature 54°F 46°F 54°F (1953)
Min Temperature 41°F 37°F 18°F (1949)
Degree Days
Heating Degree Days 18 24  
Month to date heating degree days 192  
Since 1 July heating degree days 2130  
Cooling Degree Days 0 0  
Month to date cooling degree days 0  
Year to date cooling degree days 0  
Moisture
Dew Point 45°F   
Average Humidity 93    
Maximum Humidity 100    
Minimum Humidity 72    
Precipitation
Precipitation 0.22 in 0.20 in 1.13 in (1959)
Month to date precipitation 1.50  
Year to date precipitation 1.50  
Snow
Snow 0.00 in in 4.40 in (1980)
Month to date snowfall  
Since 1 July snowfall  
Snow Depth in   
Wind
Wind Speed 9 mph   
Max Wind Speed 26 mph   
Max Gust Speed 41 mph   
Visibility 8 miles   
Events Rain   

Key: T is trace of precipitation, MM is missing value
Source: NWS Daily Summary
Time(PST)TemperatureDew PointHumidity Pressure Visibility Wind DirectionWind SpeedGust SpeedPrecipitationEvents Conditions
12:58 AM 44.6°F 42.4°F 92% 30.19 in 10.0 miles SSW 9.2 mph - N/A   Overcast
1:58 AM 43.3°F 41.9°F 95% 30.19 in 10.0 miles South 3.5 mph - N/A   Mostly Cloudy
2:58 AM 42.6°F 41.9°F 97% 30.18 in 10.0 miles SSE 2.3 mph - N/A   Scattered Clouds
3:58 AM 42.1°F 41.7°F 99% 30.16 in 10.0 miles Calm Calm - N/A   Overcast
3:59 AM 42.8°F 41.0°F 93% 30.14 in 10.0 miles Calm Calm - N/A   Overcast
4:09 AM 41.0°F 41.0°F 100% 30.14 in 10.0 miles South 2.3 mph - N/A   Mostly Cloudy
4:25 AM 41.0°F 41.0°F 100% 30.14 in 10.0 miles SSE 4.6 mph - N/A Rain Light Rain
4:58 AM 41.7°F 41.5°F 99% 30.14 in 10.0 miles SE 2.3 mph - 0.01 in Rain Light Rain
5:03 AM 41.0°F 41.0°F 100% 30.12 in 10.0 miles ESE 2.3 mph - N/A   Scattered Clouds
5:20 AM 41.0°F 41.0°F 100% 30.12 in 10.0 miles Calm Calm - N/A   Light Drizzle
5:58 AM 41.5°F 41.4°F 99% 30.11 in 10.0 miles East 6.9 mph - 0.01 in Rain Light Rain
6:58 AM 41.7°F 41.4°F 99% 30.05 in 9.0 miles East 3.5 mph - 0.01 in Rain Light Rain
7:08 AM 41.0°F 41.0°F 100% 30.05 in 7.0 miles East 2.3 mph - N/A Rain Light Rain
7:28 AM 41.0°F 41.0°F 100% 30.04 in 6.0 miles East 2.3 mph - N/A Rain Light Rain
7:58 AM 41.4°F 41.2°F 99% 30.03 in 8.0 miles ENE 3.5 mph - 0.04 in Rain Light Rain
8:13 AM 41.0°F 41.0°F 100% 30.02 in 5.0 miles ENE 4.6 mph - N/A Rain Light Rain
8:31 AM 41.0°F 41.0°F 100% 30.02 in 6.0 miles ENE 4.6 mph - N/A Rain Light Rain
8:46 AM 41.0°F 41.0°F 100% 30.02 in 3.0 miles East 2.3 mph - N/A Rain Light Rain
8:58 AM 41.5°F 41.4°F 99% 30.04 in 3.0 miles East 4.6 mph - 0.03 in Rain Light Rain
9:13 AM 41.0°F 41.0°F 100% 30.02 in 2.0 miles ENE 4.6 mph - N/A Rain Light Rain
9:23 AM 41.0°F 41.0°F 100% 30.01 in 2.5 miles East 2.3 mph - N/A Rain Light Rain
9:38 AM 41.0°F 41.0°F 100% 30.02 in 2.5 miles Calm Calm - N/A Rain Light Rain
9:43 AM 41.0°F 41.0°F 100% 30.02 in 2.0 miles Calm Calm - N/A Rain Light Rain
9:53 AM 41.0°F 41.0°F 100% 30.00 in 2.5 miles SSE 4.6 mph - N/A Rain Light Rain
9:58 AM 41.9°F 41.5°F 99% 30.02 in 3.0 miles SSE 4.6 mph - 0.03 in Rain Light Rain
10:07 AM 42.8°F 41.0°F 93% 29.99 in 4.0 miles SSE 3.5 mph - N/A Rain Light Rain
10:22 AM 42.8°F 41.0°F 93% 29.99 in 4.0 miles SSE 4.6 mph - N/A Rain Light Rain
10:27 AM 42.8°F 42.8°F 100% 29.98 in 4.0 miles SSE 3.5 mph - N/A Rain Light Rain
10:58 AM 43.5°F 43.2°F 99% 29.99 in 6.0 miles SSW 6.9 mph - 0.03 in Rain Light Rain
10:59 AM 42.8°F 42.8°F 100% 29.97 in 6.0 miles SSW 4.6 mph - N/A Rain Light Rain
11:04 AM 44.6°F 42.8°F 93% 29.97 in 4.0 miles SW 4.6 mph - N/A Rain Light Rain
11:09 AM 44.6°F 42.8°F 93% 29.96 in 3.0 miles SW 4.6 mph - N/A Rain Light Rain
11:10 AM 44.6°F 42.8°F 93% 29.96 in 3.0 miles SW 4.6 mph - N/A Rain Light Rain
11:15 AM 44.6°F 42.8°F 93% 29.95 in 3.0 miles South 5.8 mph - N/A Rain Light Rain
11:58 AM 45.0°F 44.6°F 99% 29.95 in 5.0 miles South 4.6 mph - 0.02 in Rain Light Rain
12:29 PM 48.2°F 48.2°F 100% 29.91 in 10.0 miles South 16.1 mph - N/A   Overcast
12:31 PM 48.2°F 48.2°F 100% 29.91 in 10.0 miles South 16.1 mph 21.9 mph N/A Rain Light Rain
12:46 PM 50.0°F 48.2°F 94% 29.91 in 10.0 miles South 17.3 mph 25.3 mph N/A   Overcast
12:50 PM 50.0°F 48.2°F 94% 29.91 in 8.0 miles South 18.4 mph 25.3 mph N/A Rain Light Rain
12:53 PM 50.0°F 50.0°F 100% 29.91 in 5.0 miles South 17.3 mph 25.3 mph N/A Rain Light Rain
12:58 PM 49.6°F 49.3°F 99% 29.92 in 5.0 miles South 20.7 mph - 0.02 in Rain Light Rain
1:56 PM 50.0°F 50.0°F 100% 29.88 in 10.0 miles South 17.3 mph 25.3 mph N/A   Overcast
1:58 PM 50.5°F 50.2°F 99% 29.90 in 10.0 miles South 16.1 mph 25.3 mph 0.00 in   Overcast
2:58 PM 51.8°F 49.8°F 93% 29.89 in 10.0 miles South 21.9 mph 32.2 mph N/A   Overcast
3:21 PM 51.8°F 50.0°F 94% 29.87 in 10.0 miles South 24.2 mph 28.8 mph N/A Rain Light Rain
3:31 PM 51.8°F 50.0°F 94% 29.87 in 10.0 miles South 18.4 mph 28.8 mph N/A   Overcast
3:58 PM 51.4°F 49.8°F 94% 29.88 in 10.0 miles SSW 20.7 mph 28.8 mph 0.00 in   Overcast
4:06 PM 51.8°F 50.0°F 94% 29.86 in 10.0 miles South 20.7 mph 27.6 mph N/A Rain Light Rain
4:30 PM 51.8°F 50.0°F 94% 29.84 in 10.0 miles South 23.0 mph 31.1 mph N/A   Overcast
4:58 PM 51.6°F 49.6°F 93% 29.84 in 10.0 miles SSW 25.3 mph 41.4 mph 0.01 in   Overcast
5:13 PM 51.8°F 50.0°F 94% 29.82 in 10.0 miles SSW 26.5 mph 33.4 mph N/A   Mostly Cloudy
5:58 PM 52.7°F 47.8°F 84% 29.84 in 10.0 miles SSW 24.2 mph 36.8 mph N/A   Scattered Clouds
6:18 PM 53.6°F 48.2°F 82% 29.82 in 10.0 miles South 26.5 mph 31.1 mph N/A   Overcast
6:58 PM 52.9°F 48.0°F 84% 29.83 in 10.0 miles South 26.5 mph 35.7 mph N/A   Overcast
7:48 PM 53.6°F 48.2°F 82% 29.80 in 10.0 miles South 23.0 mph 39.1 mph N/A   Overcast
7:58 PM 52.9°F 47.7°F 82% 29.82 in 10.0 miles South 18.4 mph 32.2 mph N/A   Overcast
8:28 PM 53.6°F 46.4°F 77% 29.79 in 10.0 miles SSW 24.2 mph 33.4 mph N/A   Overcast
8:48 PM 53.6°F 46.4°F 77% 29.79 in 10.0 miles South 21.9 mph 29.9 mph N/A Rain Light Rain
8:58 PM 52.5°F 47.7°F 84% 29.80 in 10.0 miles South 23.0 mph 28.8 mph 0.00 in Rain Light Rain
9:23 PM 51.8°F 48.2°F 88% 29.78 in 10.0 miles South 16.1 mph 28.8 mph N/A Rain Light Rain
9:49 PM 51.8°F 48.2°F 88% 29.77 in 10.0 miles South 19.6 mph 26.5 mph N/A   Overcast
9:58 PM 52.2°F 47.3°F 83% 29.79 in 10.0 miles South 18.4 mph 28.8 mph 0.01 in   Overcast
10:03 PM 51.8°F 46.4°F 82% 29.77 in 10.0 miles South 20.7 mph 28.8 mph N/A   Overcast
10:58 PM 54.0°F 45.9°F 74% 29.77 in 10.0 miles South 20.7 mph 33.4 mph N/A   Overcast
11:18 PM 53.6°F 46.4°F 77% 29.75 in 10.0 miles SSW 24.2 mph 28.8 mph N/A Rain Light Rain
11:33 PM 53.6°F 46.4°F 77% 29.75 in 10.0 miles SSW 16.1 mph 20.7 mph N/A   Overcast
11:51 PM 53.6°F 44.6°F 72% 29.75 in 10.0 miles SSW 16.1 mph 26.5 mph N/A Rain Light Rain
11:58 PM 53.6°F 45.5°F 74% 29.77 in 10.0 miles SSW 17.3 mph 23.0 mph 0.00 in Rain Light Rain
Moon Phase
Jan. 08 Jan. 11 Jan. 18 Jan. 26 Feb. 03
Sunrise:07:54 AM (PST) Moon Rise:04:33 AM (PST)1/8
Sunset:04:38 PM (PST) Moon Set:01:46 PM (PST)1/8

Copyright © 2014 The Weather Underground, Inc.